Weather History for KPQI - April, 2014

Change the Weather History Date:

Saturday, April 12, 2014

  Actual Average Record
Temperature  
Mean Temperature 38 °F -  
Max Temperature 53 °F 43 °F 79 °F (1945)
Min Temperature 24 °F 26 °F 2 °F (1926)
Degree Days  
Heating Degree Days 26    
Moisture  
Dew Point 23 °F    
Average Humidity 57    
Maximum Humidity 86    
Minimum Humidity 26    
Precipitation  
Precipitation 0.00 in - - ()
Sea Level Pressure  
Sea Level Pressure 30.06 in    
Wind  
Wind Speed 5 mph (WNW)    
Max Wind Speed 22 mph    
Max Gust Speed 31 mph    
Visibility 10 miles    
Events      
Averages and records for this station are not official NWS values.
T = Trace of Precipitation, MM = Missing Value Source: NWS Daily Summary

Daily Weather History Graph

Daily Weather History Graph

Search for Another Location

Airport or City:

Trip Planner

Search our weather history database for the weather conditions in past years. The results will help you decide how hot, cold, wet, or windy it might be!

Date:

Astronomy

Apr. 12, 2014 Rise Set
Actual Time 5:50 AM EDT 7:16 PM EDT
Civil Twilight 5:19 AM EDT 7:47 PM EDT
Nautical Twilight 4:41 AM EDT 8:25 PM EDT
Astronomical Twilight 4:00 AM EDT 9:07 PM EDT
Moon 4:43 PM EDT (4/12) 4:25 AM EDT (4/12)
Length of Visible Light 14h 28m
Length of Day
13h 25m
Waxing Gibbous, 93% of the Moon is Illuminated
Apr 12
Waxing Gibbous
Apr 15
Full
Apr 22
Last Quarter
Apr 29
New
May 6
First Quarter

Hourly Weather History & Observations

Time (EDT) Temp. Windchill Dew Point Humidity Pressure Visibility Wind Dir Wind Speed Gust Speed Precip Events Conditions
12:15 AM 30.2 °F 22.6 °F 24.8 °F 80% 30.02 in 10.0 mi North 8.1 mph - N/A   Clear
12:35 AM 33.8 °F - 24.8 °F 70% 30.03 in 10.0 mi Calm Calm - N/A   Clear
12:55 AM 33.8 °F 30.8 °F 26.6 °F 75% 30.03 in 10.0 mi North 3.5 mph - N/A   Clear
1:15 AM 30.2 °F - 23.0 °F 75% 30.03 in 10.0 mi Calm Calm - N/A   Clear
1:35 AM 28.4 °F - 23.0 °F 80% 30.03 in 10.0 mi Calm Calm - N/A   Clear
1:55 AM 28.4 °F - 21.2 °F 74% 30.03 in 10.0 mi Calm Calm - N/A   Clear
2:15 AM 28.4 °F - 21.2 °F 74% 30.04 in 10.0 mi Calm Calm - N/A   Clear
2:35 AM 26.6 °F - 23.0 °F 86% 30.04 in 10.0 mi Calm Calm - N/A   Clear
2:55 AM 28.4 °F - 23.0 °F 80% 30.03 in 10.0 mi Calm Calm - N/A   Clear
3:15 AM 28.4 °F - 23.0 °F 80% 30.03 in 10.0 mi Calm Calm - N/A   Clear
3:35 AM 28.4 °F - 23.0 °F 80% 30.04 in 10.0 mi Calm Calm - N/A   Clear
3:55 AM 26.6 °F - 21.2 °F 80% 30.04 in 10.0 mi Calm Calm - N/A   Clear
4:15 AM 26.6 °F - 21.2 °F 80% 30.04 in 10.0 mi Calm Calm - N/A   Clear
4:35 AM 26.6 °F - 21.2 °F 80% 30.04 in 10.0 mi Calm Calm - N/A   Clear
4:55 AM 26.6 °F - 23.0 °F 86% 30.04 in 10.0 mi Calm Calm - N/A   Clear
5:15 AM 24.8 °F - 21.2 °F 86% 30.05 in 10.0 mi Calm Calm - N/A   Clear
5:35 AM 26.6 °F - 21.2 °F 80% 30.05 in 10.0 mi Calm Calm - N/A   Clear
5:55 AM 24.8 °F - 21.2 °F 86% 30.06 in 10.0 mi Calm Calm - N/A   Clear
6:15 AM 24.8 °F - 21.2 °F 86% 30.06 in 10.0 mi Calm Calm - N/A   Unknown
6:35 AM 24.8 °F - 21.2 °F 86% 30.06 in 10.0 mi Calm Calm - N/A   Clear
6:55 AM 26.6 °F - 21.2 °F 80% 30.06 in 10.0 mi Calm Calm - N/A   Clear
7:15 AM 28.4 °F - 23.0 °F 80% 30.07 in 10.0 mi Calm Calm - N/A   Mostly Cloudy
7:35 AM 28.4 °F - 23.0 °F 80% 30.07 in 10.0 mi Calm Calm - N/A   Overcast
7:55 AM 30.2 °F - 24.8 °F 80% 30.07 in 10.0 mi Calm Calm - N/A   Overcast
8:15 AM 33.8 °F - 24.8 °F 70% 30.07 in 10.0 mi Calm Calm - N/A   Overcast
8:35 AM 35.6 °F - 26.6 °F 70% 30.07 in 10.0 mi Calm Calm - N/A   Mostly Cloudy
8:55 AM 35.6 °F - 24.8 °F 65% 30.06 in 10.0 mi Calm Calm - N/A   Mostly Cloudy
9:15 AM 37.4 °F 34.9 °F 26.6 °F 65% 30.05 in 10.0 mi NE 3.5 mph - N/A   Scattered Clouds
9:35 AM 39.2 °F - 24.8 °F 56% 30.05 in 10.0 mi Calm Calm - N/A   Partly Cloudy
9:55 AM 44.6 °F 38.4 °F 19.4 °F 37% 30.04 in 10.0 mi SSE 12.7 mph 17.3 mph N/A   Scattered Clouds
10:15 AM 44.6 °F 39.2 °F 21.2 °F 39% 30.04 in 10.0 mi SE 10.4 mph - N/A   Scattered Clouds
10:35 AM 44.6 °F 39.2 °F 21.2 °F 39% 30.03 in 10.0 mi SE 10.4 mph - N/A   Partly Cloudy
10:55 AM 46.4 °F 41.5 °F 21.2 °F 37% 30.02 in 10.0 mi ESE 10.4 mph - N/A   Clear
11:15 AM 48.2 °F - 23.0 °F 37% 30.02 in 10.0 mi SSE 6.9 mph - N/A   Scattered Clouds
11:35 AM 48.2 °F - 23.0 °F 37% 30.01 in 10.0 mi SSW 10.4 mph - N/A   Scattered Clouds
11:55 AM 51.8 °F - 23.0 °F 33% 30.00 in 10.0 mi SW 9.2 mph 18.4 mph N/A   Partly Cloudy
12:15 PM 51.8 °F - 23.0 °F 33% 29.99 in 10.0 mi SSW 12.7 mph - N/A   Clear
12:35 PM 51.8 °F - 24.8 °F 35% 29.98 in 10.0 mi SW 8.1 mph - N/A   Partly Cloudy
12:55 PM 53.6 °F - 21.2 °F 28% 29.97 in 10.0 mi SSW 17.3 mph 23.0 mph N/A   Mostly Cloudy
1:15 PM 51.8 °F - 21.2 °F 30% 29.98 in 10.0 mi West 10.4 mph - N/A   Overcast
1:35 PM 51.8 °F - 23.0 °F 33% 29.97 in 10.0 mi West 10.4 mph 16.1 mph N/A   Overcast
1:55 PM 53.6 °F - 21.2 °F 28% 29.97 in 10.0 mi West 13.8 mph - N/A   Overcast
2:15 PM 53.6 °F - 21.2 °F 28% 29.97 in 10.0 mi WSW 10.4 mph - N/A   Overcast
2:35 PM 51.8 °F - 21.2 °F 30% 29.97 in 10.0 mi WSW 11.5 mph 20.7 mph N/A   Overcast
2:55 PM 51.8 °F - 21.2 °F 30% 29.96 in 10.0 mi West 16.1 mph 23.0 mph N/A   Mostly Cloudy
3:15 PM 53.6 °F - 21.2 °F 28% 29.96 in 10.0 mi West 13.8 mph 21.9 mph N/A   Mostly Cloudy
3:35 PM 53.6 °F - 19.4 °F 26% 29.96 in 10.0 mi West 19.6 mph 31.1 mph N/A   Scattered Clouds
3:55 PM 51.8 °F - 21.2 °F 30% 29.97 in 10.0 mi West 18.4 mph 25.3 mph N/A   Partly Cloudy
4:15 PM 51.8 °F - 19.4 °F 28% 29.98 in 10.0 mi West 18.4 mph 24.2 mph N/A   Scattered Clouds
4:35 PM 51.8 °F - 19.4 °F 28% 30.00 in 10.0 mi West 19.6 mph 28.8 mph N/A   Scattered Clouds
4:55 PM 51.8 °F - 19.4 °F 28% 30.01 in 10.0 mi West 20.7 mph 28.8 mph N/A   Scattered Clouds
5:15 PM 51.8 °F - 19.4 °F 28% 30.02 in 10.0 mi West 18.4 mph 26.5 mph N/A   Scattered Clouds
5:35 PM 50.0 °F - 21.2 °F 32% 30.04 in 10.0 mi WNW 16.1 mph 26.5 mph N/A   Mostly Cloudy
5:55 PM 48.2 °F - 23.0 °F 37% 30.06 in 10.0 mi NNW 21.9 mph 26.5 mph N/A   Mostly Cloudy
6:15 PM 42.8 °F 34.8 °F 28.4 °F 57% 30.07 in 10.0 mi NNW 17.3 mph - N/A   Partly Cloudy
6:35 PM 41.0 °F 33.1 °F 28.4 °F 61% 30.09 in 10.0 mi North 15.0 mph - N/A   Clear
6:55 PM 39.2 °F 30.8 °F 28.4 °F 65% 30.11 in 10.0 mi North 15.0 mph - N/A   Scattered Clouds
7:15 PM 41.0 °F 35.2 °F 28.4 °F 61% 30.12 in 10.0 mi NNW 9.2 mph - N/A   Partly Cloudy
7:35 PM 39.2 °F 33.6 °F 26.6 °F 61% 30.14 in 10.0 mi NNW 8.1 mph - N/A   Partly Cloudy
7:55 PM 39.2 °F 34.2 °F 26.6 °F 61% 30.15 in 10.0 mi NNW 6.9 mph - N/A   Clear
8:15 PM 37.4 °F 33.8 °F 24.8 °F 60% 30.17 in 10.0 mi NW 4.6 mph - N/A   Clear
8:35 PM 37.4 °F 32.8 °F 24.8 °F 60% 30.18 in 10.0 mi NNW 5.8 mph - N/A   Clear
8:55 PM 35.6 °F 29.9 °F 24.8 °F 65% 30.19 in 10.0 mi NW 6.9 mph - N/A   Clear
9:15 PM 35.6 °F 29.9 °F 24.8 °F 65% 30.20 in 10.0 mi NW 6.9 mph - N/A   Clear
9:35 PM 37.4 °F 32.1 °F 23.0 °F 56% 30.21 in 10.0 mi NW 6.9 mph - N/A   Clear
9:55 PM 35.6 °F 29.9 °F 23.0 °F 60% 30.22 in 10.0 mi NNW 6.9 mph - N/A   Clear
10:15 PM 35.6 °F 30.7 °F 21.2 °F 56% 30.22 in 10.0 mi NNW 5.8 mph - N/A   Clear
10:35 PM 35.6 °F 30.7 °F 21.2 °F 56% 30.23 in 10.0 mi NNW 5.8 mph - N/A   Clear
10:55 PM 33.8 °F 28.6 °F 21.2 °F 60% 30.23 in 10.0 mi NW 5.8 mph - N/A   Clear
11:15 PM 33.8 °F 28.6 °F 21.2 °F 60% 30.24 in 10.0 mi NNW 5.8 mph - N/A   Clear
11:35 PM 33.8 °F 28.6 °F 19.4 °F 56% 30.25 in 10.0 mi NW 5.8 mph - N/A   Clear
11:55 PM 33.8 °F 28.6 °F 17.6 °F 52% 30.26 in 10.0 mi NNW 5.8 mph - N/A   Clear